This is the latest recevied weather packets stored in our database for station/object SA7BGG-5. If no packets are shown the sender has not sent any weather packets the latest 1 day(s).
| Time | Temp. | Humidity | Pressure | Rain* | Wind** | Luminosity | Snow |
|---|---|---|---|---|---|---|---|
| 1778066401 | 13.33° C | 38% | 1016 hPa | - | - | - | - |
| 1778065505 | 13.89° C | 41% | 1016 hPa | - | - | - | - |
| 1778065205 | 13.89° C | 41% | 1016 hPa | - | - | - | - |
| 1778064304 | 13.89° C | 44% | 1016 hPa | - | - | - | - |
| 1778063103 | 13.33° C | 54% | 1016 hPa | - | - | - | - |
| 1778061902 | 12.78° C | 64% | 1016 hPa | - | - | - | - |
| 1778060701 | 12.22° C | 67% | 1016 hPa | - | - | - | - |
| 1778059805 | 12.22° C | 67% | 1016 hPa | - | - | - | - |
| 1778059505 | 12.22° C | 67% | 1016 hPa | - | - | - | - |
| 1778058904 | 12.22° C | 66% | 1016 hPa | - | - | - | - |
| 1778057703 | 12.22° C | 65% | 1016 hPa | - | - | - | - |
| 1778056502 | 11.67° C | 70% | 1016 hPa | - | - | - | - |
| 1778055601 | 10.56° C | 73% | 1016 hPa | - | - | - | - |
| 1778054705 | 9.44° C | 82% | 1016 hPa | - | - | - | - |
| 1778054405 | 9.44° C | 82% | 1016 hPa | - | - | - | - |
| 1778053504 | 8.33° C | 85% | 1016 hPa | - | - | - | - |
| 1778052603 | 8.33° C | 84% | 1015 hPa | - | - | - | - |
| 1778051702 | 7.22° C | 84% | 1015 hPa | - | - | - | - |
| 1778051402 | 7.22° C | 84% | 1015 hPa | - | - | - | - |
| 1778050501 | 7.22° C | 83% | 1015 hPa | - | - | - | - |
| 1778049900 | 6.67° C | 83% | 1015 hPa | - | - | - | - |
| 1778049605 | 6.67° C | 83% | 1015 hPa | - | - | - | - |
| 1778048704 | 6.11° C | 81% | 1015 hPa | - | - | - | - |
| 1778047503 | 5.56° C | 79% | 1015 hPa | - | - | - | - |
| 1778047203 | 5.56° C | 79% | 1015 hPa | - | - | - | - |
* Rain since midnight (hover to see other rain measurements)
** Current wind speed in m/s (hover to see current wind gust speed)